SCP
0 0 0 0 0 0 0 0 0 0 0 0 0 0 0 1 1 1 0 1 1 1 1 1 1 1 1 1 1 1 0 0 0 0 0 0 0 0 0 0 0 0 0 0 0 0 0 0 0
0 0 0 0 0 0 0 0 0 0 0 0 0 1 1 1 2 2 1 1 1 1 1 1 1 1 1 1 1 1 0 0 0 0 0 0 0 0 0 0 0 0 0 -0 -0 -0 -0 -0 -0
0 0 0 0 0 0 0 0 0 0 0 0 1 1 1 1 2 1 1 1 1 1 1 1 1 1 1 1 1 1 0 0 0 0 0 0 0 0 0 0 0 0 -0 -0 -0 -0 -0 -0 -0
0 0 0 0 0 0 0 0 0 0 0 1 1 1 0 0 1 0 0 1 0 1 1 1 1 1 1 1 1 1 0 0 0 0 0 0 0 0 0 0 0 0 0 -0 -0 -0 -0 -0 -0
0 0 0 0 0 0 0 0 0 0 0 1 1 0 0 1 1 1 0 0 0 0 1 1 1 1 1 1 0 0 0 0 0 0 0 0 0 0 0 0 0 0 0 0 -0 -0 -0 -0 -0
0 0 0 0 0 0 -0 0 0 0 0 1 1 0 0 0 0 0 0 0 0 0 0 0 1 1 1 0 0 0 0 0 0 0 0 0 0 0 0 0 0 0 0 0 -0 -0 -0 -0 -0
0 0 0 0 0 0 0 0 0 0 0 0 0 1 1 1 1 0 0 0 0 0 0 0 0 0 0 0 0 0 0 0 0 0 0 0 0 0 0 0 0 0 0 0 0 0 0 0 0
0 0 0 0 0 0 0 0 0 0 0 0 0 0 0 1 0 0 0 0 0 0 0 0 0 0 0 0 0 0 0 0 0 0 0 0 0 0 0 0 0 0 0 0 0 0 0 0 0
0 0 0 0 0 0 0 0 0 -0 0 -0 0 0 0 0 0 0 0 0 0 0 0 0 0 0 0 0 0 0 0 0 0 0 0 0 0 0 0 0 0 0 0 0 0 0 0 0 0
0 0 0 0 0 0 0 0 0 0 0 0 0 0 0 0 0 0 0 0 0 0 0 0 0 0 0 0 0 0 0 0 0 0 0 0 0 0 0 0 0 0 0 0 0 0 0 0 0
0 0 0 0 0 0 0 0 0 0 0 0 0 0 0 0 0 0 0 0 0 0 0 0 0 0 0 0 0 0 0 0 0 0 0 0 0 0 0 0 0 0 0 0 0 0 0 0 0
0 0 0 0 0 0 0 0 0 0 0 0 0 0 0 0 0 0 0 0 0 0 0 0 0 0 0 0 0 0 0 0 0 0 0 0 0 0 0 0 0 0 0 0 0 0 0 0 0
0 0 0 0 0 0 0 0 0 0 0 0 0 0 0 0 0 0 0 0 0 0 0 0 0 0 0 0 0 0 0 0 0 0 0 0 0 0 0 0 0 0 0 0 0 0 0 0 0
0 0 0 0 0 0 0 0 0 0 0 0 0 0 0 0 0 0 0 0 0 0 0 0 0 0 0 0 0 0 0 0 0 0 0 0 0 0 0 0 0 0 0 0 0 0 0 0 0
0 0 0 0 0 0 0 0 0 0 0 0 0 0 0 0 0 0 0 0 0 0 0 0 0 0 0 0 0 0 0 0 0 0 0 0 0 0 0 0 0 0 0 0 0 0 0 0 0
0 0 0 0 0 0 0 0 0 0 0 0 0 0 0 0 0 0 0 0 0 0 0 0 0 0 0 0 0 0 0 0 0 0 0 0 0 0 0 0 0 0 0 0 0 0 0 0 0
0 0 0 0 0 0 0 0 0 0 0 0 0 0 0 0 0 0 0 0 0 0 0 0 0 0 0 0 0 0 0 0 0 0 0 0 0 0 0 0 0 0 0 0 0 0 0 0 0
0 0 0 0 0 0 0 0 0 0 0 0 0 0 0 0 0 0 0 0 0 0 0 0 0 0 0 0 0 0 0 0 0 0 0 0 0 0 0 0 0 0 0 0 0 0 0 0 0
0 0 0 0 0 0 0 0 -0 0 0 0 0 0 0 0 0 0 0 0 0 0 0 0 0 0 0 0 0 0 0 0 0 0 0 0 0 0 0 0 0 0 0 0 0 0 0 0 0
0 0 0 0 0 0 0 0 -0 0 0 0 -0 0 0 0 0 0 0 0 0 -0 0 0 0 0 0 0 0 0 0 0 0 0 0 0 0 0 0 0 0 0 0 0 0 0 0 0 0
0 0 0 0 0 0 0 0 -0 -0 0 0 0 0 0 0 0 0 0 0 0 -0 -0 0 0 0 0 0 0 0 0 0 0 0 0 0 0 0 0 0 0 0 0 0 0 0 0 0 0
0 0 0 0 0 0 0 0 -0 0 0 0 0 0 0 0 0 0 0 0 0 -0 0 0 0 0 0 0 0 0 0 0 0 0 0 0 0 0 0 0 0 0 0 0 0 0 0 0 0
0 0 0 0 0 0 0 0 0 0 0 0 0 0 0 0 0 0 0 0 0 0 0 0 0 0 0 0 0 0 0 0 0 0 0 0 0 0 0 0 0 0 0 0 0 0 0 0 0
0 0 0 0 0 0 0 0 0 0 0 0 0 0 0 0 0 0 0 0 0 0 0 0 0 0 0 0 0 0 0 0 0 0 0 0 0 0 0 0 0 0 0 0 0 0 0 0 0
0 0 0 0 0 0 0 0 0 0 0 0 0 0 0 0 0 0 0 0 0 0 0 0 0 0 0 0 0 0 0 0 0 0 0 0 0 0 0 0 0 0 0 0 0 0 0 0 0
0 0 0 0 0 0 0 0 0 0 0 0 0 0 0 0 0 0 0 0 0 0 0 0 0 0 0 0 0 0 0 0 0 0 0 0 0 0 0 0 0 0 0 0 0 0 0 0 0
0 0 0 0 0 0 0 0 0 0 0 0 0 0 0 0 0 0 0 0 0 0 0 0 0 0 0 0 0 0 0 0 0 0 0 0 0 0 0 0 0 0 0 0 0 0 0 0 0
0 0 0 0 0 0 0 0 0 0 0 0 0 0 0 0 0 0 0 0 0 0 0 0 0 0 0 0 0 0 0 0 0 0 0 0 0 0 0 0 0 0 0 0 0 0 0 0 0
0 0 0 0 0 0 0 0 0 0 0 0 0 0 0 0 0 0 0 0 0 0 0 0 0 0 0 0 0 0 0 0 0 0 0 0 0 0 0 0 0 0 0 0 0 0 0 0 0
0 0 0 0 0 0 0 0 0 0 0 0 0 0 0 0 0 0 0 0 0 0 0 0 0 0 0 0 0 0 0 0 0 0 0 0 0 0 0 0 0 0 0 0 0 0 0 0 0
Wind_Speed_500mb
16 14 12 10 7 9 8 14 9 19 3 9 18 20 17 10 7 8 26 53 54 58 57 53 50 47 44 40 36 33 31 28 25 22 20 17 13 10 8 5 3 3 4 5 6 7 9 9 11
16 18 10 2 7 4 10 11 13 13 15 33 26 17 10 6 12 27 42 45 50 54 55 55 52 50 47 42 38 34 30 27 24 21 18 15 12 10 8 6 5 5 6 6 6 7 8 9 10
27 23 4 7 6 10 10 9 15 43 26 13 14 18 11 23 29 50 41 56 52 49 55 58 56 54 49 44 39 35 31 26 23 21 17 13 11 8 6 5 3 3 4 4 4 5 6 8 10
20 4 3 5 17 17 12 17 33 29 33 7 32 14 13 9 48 45 58 54 51 49 56 59 57 55 52 46 40 33 29 26 23 20 16 14 12 8 5 4 3 2 1 3 4 5 6 7 8
21 3 3 3 15 15 14 22 44 29 17 16 23 16 16 27 37 49 55 52 49 46 59 60 58 54 49 44 39 35 31 26 22 20 18 15 12 11 9 7 5 3 1 3 6 8 10 11 12
7 2 4 8 16 14 18 39 47 50 42 20 13 18 13 35 46 59 46 51 45 46 60 58 55 52 47 42 37 31 27 26 25 23 19 16 14 13 12 10 8 5 5 8 11 13 15 16 18
8 7 12 14 30 21 31 31 22 18 18 13 27 11 13 43 52 59 52 47 49 48 59 61 59 55 49 40 35 32 30 30 28 25 22 20 17 14 12 10 7 7 7 9 11 12 13 14 15
15 9 9 11 19 26 26 30 33 38 23 14 7 14 17 59 62 58 51 50 50 52 56 61 61 58 51 47 41 37 35 33 31 29 25 21 18 16 13 9 7 8 7 7 7 8 10 13 15
14 2 9 12 11 21 57 10 47 41 20 17 5 14 19 70 68 60 60 57 55 56 62 64 62 55 50 47 46 44 41 38 35 32 28 24 21 18 14 11 9 7 6 5 4 7 8 11 14
2 6 13 11 13 20 48 21 37 10 21 16 10 9 23 73 76 78 77 75 70 63 66 66 60 58 55 54 51 49 48 45 40 35 31 27 23 19 14 13 10 6 5 4 3 4 9 11 13
8 11 10 20 48 45 24 19 37 12 6 31 20 31 53 72 78 79 78 73 73 66 59 66 62 61 59 58 56 54 52 48 44 39 34 28 23 20 18 15 12 8 6 3 4 5 6 7 6
14 45 40 31 38 42 26 35 20 33 26 43 35 32 64 75 80 83 81 78 74 68 61 65 63 63 60 60 59 57 53 50 46 41 34 28 23 22 21 14 11 10 9 5 4 4 5 6 12
29 23 35 42 55 54 50 37 35 36 59 39 30 46 65 74 79 79 76 72 71 71 68 70 71 70 69 66 63 61 55 51 46 41 34 29 26 27 22 16 14 12 8 5 3 3 8 12 15
22 43 39 37 44 44 39 43 19 36 57 56 33 49 66 75 83 82 82 79 75 72 72 68 71 69 68 71 68 65 61 54 49 43 37 33 32 29 22 20 17 13 8 5 2 7 9 13 15
19 32 35 29 35 17 57 42 30 60 60 60 67 54 68 78 85 90 87 89 81 75 74 71 72 66 67 66 66 64 59 52 50 46 40 36 34 30 24 22 18 11 7 3 3 6 11 12 13
20 20 17 9 4 16 14 44 25 67 58 57 67 63 72 82 90 89 91 89 87 80 81 79 74 69 72 70 67 63 54 48 49 45 42 40 37 31 26 22 17 11 7 3 3 6 8 10 12
10 17 24 12 21 16 19 36 17 51 47 52 71 64 77 86 90 91 92 91 89 83 88 90 86 78 77 70 66 59 54 51 50 46 43 41 37 32 28 23 17 13 8 4 6 8 9 10 12
15 15 14 18 6 13 20 52 35 49 53 46 63 69 79 90 100 98 98 95 85 86 89 91 89 87 85 76 71 67 60 57 52 49 45 42 37 32 28 23 19 13 8 6 6 8 10 11 12
17 22 39 27 16 21 35 51 53 27 33 34 52 49 68 87 95 101 99 95 84 94 94 96 94 93 92 92 86 78 72 64 55 50 46 43 38 34 28 24 18 13 8 5 6 7 8 7 9
35 43 49 46 32 35 39 56 56 35 19 42 53 57 58 78 73 90 102 99 100 103 105 101 98 94 96 97 94 83 74 66 57 53 48 43 39 34 29 23 18 13 8 5 5 5 8 10 13
42 50 42 47 30 36 28 53 47 47 36 41 40 51 56 70 87 97 107 109 108 112 115 110 106 103 97 98 92 80 72 67 65 57 51 46 40 34 29 24 18 13 9 6 4 6 9 12 15
44 36 40 42 27 31 14 37 64 36 42 34 41 56 60 51 78 98 117 113 120 120 118 115 112 108 99 96 95 94 92 84 70 60 53 48 42 36 30 24 18 13 10 5 2 6 10 13 16
55 15 28 36 32 18 52 11 49 25 36 23 17 46 60 66 68 90 105 127 131 127 127 126 120 109 99 93 94 93 89 77 68 60 54 47 43 37 32 25 19 15 10 4 0 5 9 12 16
16 22 32 23 18 27 65 17 31 49 21 7 16 50 70 76 61 87 105 115 123 121 126 130 123 109 94 90 93 93 85 79 70 64 57 51 44 38 33 27 21 16 11 6 3 3 8 12 15
16 15 15 15 22 31 45 20 41 48 15 33 36 47 69 75 53 66 92 90 104 118 130 131 124 114 101 95 93 88 77 71 64 64 62 56 48 42 35 28 21 18 11 6 4 1 4 9 11
24 45 17 34 25 24 25 25 41 20 6 20 30 26 39 72 77 68 92 118 127 135 138 134 128 118 101 94 92 89 78 67 61 57 56 50 44 39 34 27 23 18 13 9 4 2 3 5 8
39 22 49 38 48 27 26 31 27 19 6 22 28 44 47 27 36 52 85 118 113 111 113 120 124 108 93 91 87 81 77 70 66 60 52 46 43 39 31 26 23 19 13 9 8 3 1 3 6
23 3 13 17 33 53 31 37 22 11 14 17 21 26 51 29 7 25 68 72 73 82 90 98 105 101 90 91 88 83 77 67 67 57 56 55 47 35 30 29 25 17 14 13 9 6 4 0 2
12 16 13 7 11 27 36 24 11 7 3 8 15 30 42 28 30 48 54 63 68 70 80 93 94 84 80 81 87 85 74 73 68 63 62 53 43 35 33 34 21 19 17 16 12 11 7 4 3
10 11 17 8 6 7 9 7 15 17 12 10 11 23 29 21 24 37 49 66 71 71 74 76 91 95 87 94 92 86 82 74 66 65 59 50 41 38 37 25 23 24 21 19 15 12 10 7 6
Wind_Direction_500mb
358 334 300 316 37 61 271 274 289 292 294 29 101 134 140 48 130 190 143 162 180 175 171 173 174 173 171 167 165 164 164 165 164 162 165 162 163 170 171 176 201 261 290 311 319 328 326 330 332
351 336 322 120 94 18 269 255 333 306 136 109 78 87 56 97 107 143 149 170 180 177 177 175 176 176 175 173 172 171 171 172 174 172 176 171 177 190 192 204 231 259 281 295 302 304 305 304 305
330 335 293 115 143 193 222 248 335 311 278 203 111 79 114 133 154 157 163 163 176 180 182 181 179 180 178 179 177 176 177 180 180 182 182 182 187 206 214 223 227 253 283 301 309 303 305 312 317
337 309 144 107 248 255 245 288 291 286 279 252 138 85 111 142 166 176 169 171 177 184 186 184 182 182 182 181 180 180 181 188 187 181 181 180 188 199 207 203 189 193 294 326 337 335 332 330 320
334 226 75 261 257 269 276 287 302 298 260 184 173 159 121 158 170 176 173 178 187 189 189 188 188 188 186 184 182 182 184 186 183 183 182 182 189 181 183 190 176 175 190 300 305 305 305 303 299
302 65 32 256 266 282 281 295 298 281 264 154 101 105 156 171 184 181 177 178 186 197 186 180 183 186 185 186 184 185 185 186 184 182 184 184 184 179 178 181 191 208 253 285 294 300 304 306 306
180 105 223 242 276 288 283 319 300 322 318 355 146 99 147 175 186 182 182 186 191 196 191 186 185 187 187 186 185 186 187 186 185 188 188 184 181 184 189 196 219 253 274 286 298 318 321 321 319
281 134 215 236 274 279 280 313 319 339 303 116 160 172 175 185 187 177 181 188 196 197 203 192 191 189 186 185 188 187 186 187 189 191 190 187 186 197 204 222 242 265 279 287 321 335 338 335 336
258 191 237 238 243 269 284 285 290 309 325 335 294 242 235 186 183 183 185 188 197 199 207 197 196 190 189 190 188 186 187 190 193 193 190 190 194 203 216 228 240 249 264 291 330 335 343 347 344
198 189 239 214 256 273 281 265 281 302 313 289 297 241 201 182 186 187 189 191 196 200 197 200 197 193 192 192 191 190 192 193 197 196 193 197 199 214 221 228 220 226 241 281 328 344 340 340 345
240 215 237 278 277 284 289 293 287 253 230 280 236 186 181 188 192 196 198 202 201 199 202 201 197 197 196 195 193 194 195 196 197 196 194 201 203 215 217 211 202 199 233 253 294 322 326 337 343
286 282 277 282 292 304 290 296 277 271 277 289 271 228 189 194 201 204 202 202 202 199 201 205 196 198 196 198 197 199 197 197 197 200 195 201 212 216 216 204 200 199 220 245 278 316 347 9 12
283 266 283 297 299 290 296 276 271 273 284 289 280 198 198 202 205 209 210 207 205 201 202 205 196 198 197 199 200 199 198 200 200 200 194 203 211 214 211 200 205 211 218 243 273 358 18 19 9
298 298 292 294 292 291 285 280 277 260 273 277 252 212 207 211 213 209 210 212 210 205 204 206 196 199 199 198 200 201 199 200 201 200 199 202 209 211 204 202 208 215 222 244 330 26 14 7 358
290 302 299 282 273 265 275 275 252 271 276 269 266 244 218 216 210 218 221 212 213 210 208 204 198 203 200 199 203 202 201 201 203 200 200 204 206 205 197 204 209 211 221 248 9 2 6 1 356
300 292 279 176 254 255 221 264 280 276 270 268 262 248 222 215 221 222 221 216 214 214 209 201 196 206 204 202 206 204 203 203 204 202 201 204 205 198 197 205 210 209 216 238 298 336 354 355 356
212 266 249 286 237 255 197 282 234 280 275 251 259 247 230 222 218 220 222 219 216 212 209 202 199 204 206 203 208 208 211 210 204 203 203 204 203 196 195 201 207 213 221 251 303 331 347 360 1
203 243 243 241 257 255 260 276 270 263 268 270 266 246 222 215 220 220 221 218 212 210 211 202 199 202 204 202 205 208 211 212 205 203 203 204 201 196 195 196 205 211 225 250 299 326 348 2 14
265 255 264 266 252 282 282 280 281 261 262 271 279 248 216 213 230 219 217 216 207 210 208 203 199 203 205 201 203 207 208 206 203 201 202 204 200 196 195 198 203 209 224 262 305 334 355 5 23
245 255 263 278 270 261 272 272 278 272 255 255 262 261 226 220 213 217 214 212 209 210 208 204 203 204 206 206 206 209 207 204 203 201 199 200 200 197 195 199 204 209 219 253 291 338 2 9 29
239 243 259 260 282 275 290 281 283 280 269 255 262 266 250 223 209 212 209 208 208 210 208 207 206 205 205 206 204 204 206 205 199 200 199 197 197 196 196 198 199 204 210 244 297 357 16 23 38
249 236 255 270 278 274 171 276 282 284 266 259 258 263 264 248 219 217 209 201 209 212 209 209 208 204 204 205 204 204 202 198 200 199 197 196 193 194 195 197 194 199 211 233 341 3 13 38 37
248 278 271 278 275 290 271 238 279 263 270 266 250 260 264 254 234 216 205 208 211 210 208 207 205 202 203 202 206 202 202 200 200 196 196 194 192 190 192 192 193 198 206 205 273 19 30 32 34
276 285 288 285 263 255 259 185 267 270 252 271 255 250 256 258 242 230 223 206 204 202 203 203 201 200 200 202 204 204 200 200 196 195 194 193 193 190 189 189 190 194 199 188 135 48 33 32 28
234 267 258 248 235 242 259 226 234 266 295 284 275 269 268 263 248 227 210 197 196 198 200 201 199 197 197 199 201 203 201 203 201 199 195 191 190 190 188 187 187 196 184 197 154 78 40 38 28
206 222 221 236 239 247 237 229 238 232 274 18 342 313 277 265 259 245 213 204 203 201 201 198 197 196 195 198 202 198 196 197 204 204 199 195 192 190 186 183 194 185 188 183 184 169 47 37 30
252 221 225 238 260 273 253 267 294 258 337 22 359 354 346 321 272 247 211 203 195 189 189 190 190 192 192 196 196 198 197 193 198 195 201 194 191 188 185 188 191 188 173 185 204 196 127 50 29
225 90 228 226 233 243 248 255 250 23 14 19 351 345 345 360 8 164 173 179 176 179 179 180 187 190 187 195 194 192 195 200 191 194 200 195 190 187 189 193 185 174 195 200 198 205 200 133 338
265 238 250 265 213 230 241 248 166 137 98 15 338 355 17 40 103 135 154 158 164 170 171 177 184 188 193 197 192 190 196 193 193 193 194 189 188 187 195 192 168 215 203 202 202 202 195 218 258
57 18 10 287 299 287 289 236 22 3 332 27 340 347 30 77 123 140 152 159 163 170 177 185 191 196 196 194 194 195 189 193 193 194 193 189 188 189 201 164 207 209 200 199 196 204 205 213 226
Wind_Speed_850mb
16 14 12 10 7 9 8 14 9 19 3 9 18 20 17 10 7 8 26 53 54 58 57 53 50 47 44 40 36 33 31 28 25 22 20 17 13 10 8 5 3 3 4 5 6 7 9 9 11
16 18 10 2 7 4 10 11 13 13 15 33 26 17 10 6 12 27 42 45 50 54 55 55 52 50 47 42 38 34 30 27 24 21 18 15 12 10 8 6 5 5 6 6 6 7 8 9 10
27 23 4 7 6 10 10 9 15 43 26 13 14 18 11 23 29 50 41 56 52 49 55 58 56 54 49 44 39 35 31 26 23 21 17 13 11 8 6 5 3 3 4 4 4 5 6 8 10
20 4 3 5 17 17 12 17 33 29 33 7 32 14 13 9 48 45 58 54 51 49 56 59 57 55 52 46 40 33 29 26 23 20 16 14 12 8 5 4 3 2 1 3 4 5 6 7 8
21 3 3 3 15 15 14 22 44 29 17 16 23 16 16 27 37 49 55 52 49 46 59 60 58 54 49 44 39 35 31 26 22 20 18 15 12 11 9 7 5 3 1 3 6 8 10 11 12
7 2 4 8 16 14 18 39 47 50 42 20 13 18 13 35 46 59 46 51 45 46 60 58 55 52 47 42 37 31 27 26 25 23 19 16 14 13 12 10 8 5 5 8 11 13 15 16 18
8 7 12 14 30 21 31 31 22 18 18 13 27 11 13 43 52 59 52 47 49 48 59 61 59 55 49 40 35 32 30 30 28 25 22 20 17 14 12 10 7 7 7 9 11 12 13 14 15
15 9 9 11 19 26 26 30 33 38 23 14 7 14 17 59 62 58 51 50 50 52 56 61 61 58 51 47 41 37 35 33 31 29 25 21 18 16 13 9 7 8 7 7 7 8 10 13 15
14 2 9 12 11 21 57 10 47 41 20 17 5 14 19 70 68 60 60 57 55 56 62 64 62 55 50 47 46 44 41 38 35 32 28 24 21 18 14 11 9 7 6 5 4 7 8 11 14
2 6 13 11 13 20 48 21 37 10 21 16 10 9 23 73 76 78 77 75 70 63 66 66 60 58 55 54 51 49 48 45 40 35 31 27 23 19 14 13 10 6 5 4 3 4 9 11 13
8 11 10 20 48 45 24 19 37 12 6 31 20 31 53 72 78 79 78 73 73 66 59 66 62 61 59 58 56 54 52 48 44 39 34 28 23 20 18 15 12 8 6 3 4 5 6 7 6
14 45 40 31 38 42 26 35 20 33 26 43 35 32 64 75 80 83 81 78 74 68 61 65 63 63 60 60 59 57 53 50 46 41 34 28 23 22 21 14 11 10 9 5 4 4 5 6 12
29 23 35 42 55 54 50 37 35 36 59 39 30 46 65 74 79 79 76 72 71 71 68 70 71 70 69 66 63 61 55 51 46 41 34 29 26 27 22 16 14 12 8 5 3 3 8 12 15
22 43 39 37 44 44 39 43 19 36 57 56 33 49 66 75 83 82 82 79 75 72 72 68 71 69 68 71 68 65 61 54 49 43 37 33 32 29 22 20 17 13 8 5 2 7 9 13 15
19 32 35 29 35 17 57 42 30 60 60 60 67 54 68 78 85 90 87 89 81 75 74 71 72 66 67 66 66 64 59 52 50 46 40 36 34 30 24 22 18 11 7 3 3 6 11 12 13
20 20 17 9 4 16 14 44 25 67 58 57 67 63 72 82 90 89 91 89 87 80 81 79 74 69 72 70 67 63 54 48 49 45 42 40 37 31 26 22 17 11 7 3 3 6 8 10 12
10 17 24 12 21 16 19 36 17 51 47 52 71 64 77 86 90 91 92 91 89 83 88 90 86 78 77 70 66 59 54 51 50 46 43 41 37 32 28 23 17 13 8 4 6 8 9 10 12
15 15 14 18 6 13 20 52 35 49 53 46 63 69 79 90 100 98 98 95 85 86 89 91 89 87 85 76 71 67 60 57 52 49 45 42 37 32 28 23 19 13 8 6 6 8 10 11 12
17 22 39 27 16 21 35 51 53 27 33 34 52 49 68 87 95 101 99 95 84 94 94 96 94 93 92 92 86 78 72 64 55 50 46 43 38 34 28 24 18 13 8 5 6 7 8 7 9
35 43 49 46 32 35 39 56 56 35 19 42 53 57 58 78 73 90 102 99 100 103 105 101 98 94 96 97 94 83 74 66 57 53 48 43 39 34 29 23 18 13 8 5 5 5 8 10 13
42 50 42 47 30 36 28 53 47 47 36 41 40 51 56 70 87 97 107 109 108 112 115 110 106 103 97 98 92 80 72 67 65 57 51 46 40 34 29 24 18 13 9 6 4 6 9 12 15
44 36 40 42 27 31 14 37 64 36 42 34 41 56 60 51 78 98 117 113 120 120 118 115 112 108 99 96 95 94 92 84 70 60 53 48 42 36 30 24 18 13 10 5 2 6 10 13 16
55 15 28 36 32 18 52 11 49 25 36 23 17 46 60 66 68 90 105 127 131 127 127 126 120 109 99 93 94 93 89 77 68 60 54 47 43 37 32 25 19 15 10 4 0 5 9 12 16
16 22 32 23 18 27 65 17 31 49 21 7 16 50 70 76 61 87 105 115 123 121 126 130 123 109 94 90 93 93 85 79 70 64 57 51 44 38 33 27 21 16 11 6 3 3 8 12 15
16 15 15 15 22 31 45 20 41 48 15 33 36 47 69 75 53 66 92 90 104 118 130 131 124 114 101 95 93 88 77 71 64 64 62 56 48 42 35 28 21 18 11 6 4 1 4 9 11
24 45 17 34 25 24 25 25 41 20 6 20 30 26 39 72 77 68 92 118 127 135 138 134 128 118 101 94 92 89 78 67 61 57 56 50 44 39 34 27 23 18 13 9 4 2 3 5 8
39 22 49 38 48 27 26 31 27 19 6 22 28 44 47 27 36 52 85 118 113 111 113 120 124 108 93 91 87 81 77 70 66 60 52 46 43 39 31 26 23 19 13 9 8 3 1 3 6
23 3 13 17 33 53 31 37 22 11 14 17 21 26 51 29 7 25 68 72 73 82 90 98 105 101 90 91 88 83 77 67 67 57 56 55 47 35 30 29 25 17 14 13 9 6 4 0 2
12 16 13 7 11 27 36 24 11 7 3 8 15 30 42 28 30 48 54 63 68 70 80 93 94 84 80 81 87 85 74 73 68 63 62 53 43 35 33 34 21 19 17 16 12 11 7 4 3
10 11 17 8 6 7 9 7 15 17 12 10 11 23 29 21 24 37 49 66 71 71 74 76 91 95 87 94 92 86 82 74 66 65 59 50 41 38 37 25 23 24 21 19 15 12 10 7 6
Wind_Direction_850mb
358 334 300 316 37 61 271 274 289 292 294 29 101 134 140 48 130 190 143 162 180 175 171 173 174 173 171 167 165 164 164 165 164 162 165 162 163 170 171 176 201 261 290 311 319 328 326 330 332
351 336 322 120 94 18 269 255 333 306 136 109 78 87 56 97 107 143 149 170 180 177 177 175 176 176 175 173 172 171 171 172 174 172 176 171 177 190 192 204 231 259 281 295 302 304 305 304 305
330 335 293 115 143 193 222 248 335 311 278 203 111 79 114 133 154 157 163 163 176 180 182 181 179 180 178 179 177 176 177 180 180 182 182 182 187 206 214 223 227 253 283 301 309 303 305 312 317
337 309 144 107 248 255 245 288 291 286 279 252 138 85 111 142 166 176 169 171 177 184 186 184 182 182 182 181 180 180 181 188 187 181 181 180 188 199 207 203 189 193 294 326 337 335 332 330 320
334 226 75 261 257 269 276 287 302 298 260 184 173 159 121 158 170 176 173 178 187 189 189 188 188 188 186 184 182 182 184 186 183 183 182 182 189 181 183 190 176 175 190 300 305 305 305 303 299
302 65 32 256 266 282 281 295 298 281 264 154 101 105 156 171 184 181 177 178 186 197 186 180 183 186 185 186 184 185 185 186 184 182 184 184 184 179 178 181 191 208 253 285 294 300 304 306 306
180 105 223 242 276 288 283 319 300 322 318 355 146 99 147 175 186 182 182 186 191 196 191 186 185 187 187 186 185 186 187 186 185 188 188 184 181 184 189 196 219 253 274 286 298 318 321 321 319
281 134 215 236 274 279 280 313 319 339 303 116 160 172 175 185 187 177 181 188 196 197 203 192 191 189 186 185 188 187 186 187 189 191 190 187 186 197 204 222 242 265 279 287 321 335 338 335 336
258 191 237 238 243 269 284 285 290 309 325 335 294 242 235 186 183 183 185 188 197 199 207 197 196 190 189 190 188 186 187 190 193 193 190 190 194 203 216 228 240 249 264 291 330 335 343 347 344
198 189 239 214 256 273 281 265 281 302 313 289 297 241 201 182 186 187 189 191 196 200 197 200 197 193 192 192 191 190 192 193 197 196 193 197 199 214 221 228 220 226 241 281 328 344 340 340 345
240 215 237 278 277 284 289 293 287 253 230 280 236 186 181 188 192 196 198 202 201 199 202 201 197 197 196 195 193 194 195 196 197 196 194 201 203 215 217 211 202 199 233 253 294 322 326 337 343
286 282 277 282 292 304 290 296 277 271 277 289 271 228 189 194 201 204 202 202 202 199 201 205 196 198 196 198 197 199 197 197 197 200 195 201 212 216 216 204 200 199 220 245 278 316 347 9 12
283 266 283 297 299 290 296 276 271 273 284 289 280 198 198 202 205 209 210 207 205 201 202 205 196 198 197 199 200 199 198 200 200 200 194 203 211 214 211 200 205 211 218 243 273 358 18 19 9
298 298 292 294 292 291 285 280 277 260 273 277 252 212 207 211 213 209 210 212 210 205 204 206 196 199 199 198 200 201 199 200 201 200 199 202 209 211 204 202 208 215 222 244 330 26 14 7 358
290 302 299 282 273 265 275 275 252 271 276 269 266 244 218 216 210 218 221 212 213 210 208 204 198 203 200 199 203 202 201 201 203 200 200 204 206 205 197 204 209 211 221 248 9 2 6 1 356
300 292 279 176 254 255 221 264 280 276 270 268 262 248 222 215 221 222 221 216 214 214 209 201 196 206 204 202 206 204 203 203 204 202 201 204 205 198 197 205 210 209 216 238 298 336 354 355 356
212 266 249 286 237 255 197 282 234 280 275 251 259 247 230 222 218 220 222 219 216 212 209 202 199 204 206 203 208 208 211 210 204 203 203 204 203 196 195 201 207 213 221 251 303 331 347 360 1
203 243 243 241 257 255 260 276 270 263 268 270 266 246 222 215 220 220 221 218 212 210 211 202 199 202 204 202 205 208 211 212 205 203 203 204 201 196 195 196 205 211 225 250 299 326 348 2 14
265 255 264 266 252 282 282 280 281 261 262 271 279 248 216 213 230 219 217 216 207 210 208 203 199 203 205 201 203 207 208 206 203 201 202 204 200 196 195 198 203 209 224 262 305 334 355 5 23
245 255 263 278 270 261 272 272 278 272 255 255 262 261 226 220 213 217 214 212 209 210 208 204 203 204 206 206 206 209 207 204 203 201 199 200 200 197 195 199 204 209 219 253 291 338 2 9 29
239 243 259 260 282 275 290 281 283 280 269 255 262 266 250 223 209 212 209 208 208 210 208 207 206 205 205 206 204 204 206 205 199 200 199 197 197 196 196 198 199 204 210 244 297 357 16 23 38
249 236 255 270 278 274 171 276 282 284 266 259 258 263 264 248 219 217 209 201 209 212 209 209 208 204 204 205 204 204 202 198 200 199 197 196 193 194 195 197 194 199 211 233 341 3 13 38 37
248 278 271 278 275 290 271 238 279 263 270 266 250 260 264 254 234 216 205 208 211 210 208 207 205 202 203 202 206 202 202 200 200 196 196 194 192 190 192 192 193 198 206 205 273 19 30 32 34
276 285 288 285 263 255 259 185 267 270 252 271 255 250 256 258 242 230 223 206 204 202 203 203 201 200 200 202 204 204 200 200 196 195 194 193 193 190 189 189 190 194 199 188 135 48 33 32 28
234 267 258 248 235 242 259 226 234 266 295 284 275 269 268 263 248 227 210 197 196 198 200 201 199 197 197 199 201 203 201 203 201 199 195 191 190 190 188 187 187 196 184 197 154 78 40 38 28
206 222 221 236 239 247 237 229 238 232 274 18 342 313 277 265 259 245 213 204 203 201 201 198 197 196 195 198 202 198 196 197 204 204 199 195 192 190 186 183 194 185 188 183 184 169 47 37 30
252 221 225 238 260 273 253 267 294 258 337 22 359 354 346 321 272 247 211 203 195 189 189 190 190 192 192 196 196 198 197 193 198 195 201 194 191 188 185 188 191 188 173 185 204 196 127 50 29
225 90 228 226 233 243 248 255 250 23 14 19 351 345 345 360 8 164 173 179 176 179 179 180 187 190 187 195 194 192 195 200 191 194 200 195 190 187 189 193 185 174 195 200 198 205 200 133 338
265 238 250 265 213 230 241 248 166 137 98 15 338 355 17 40 103 135 154 158 164 170 171 177 184 188 193 197 192 190 196 193 193 193 194 189 188 187 195 192 168 215 203 202 202 202 195 218 258
57 18 10 287 299 287 289 236 22 3 332 27 340 347 30 77 123 140 152 159 163 170 177 185 191 196 196 194 194 195 189 193 193 194 193 189 188 189 201 164 207 209 200 199 196 204 205 213 226